• In Czech Republic
  • List of Countries
  • For 7 days
  • Water Temperature
  • Satellite Maps
  • Weather Map
  • Weather Widgets
  • user-avatar
    Login

    Hourly Weather Balchik

    Today, 16 December, Saturday

    Time Temperature Precipitation Wind Pressure Humidity
    00:00 +9°C° 0 mm 7 mps 733 mmHg 78%
    01:00 +9°C° 0 mm 7 mps 733 mmHg 81%
    02:00 +8°C° 0 mm 7 mps 732 mmHg 82%
    03:00 +9°C° 0 mm 7 mps 732 mmHg 84%
    04:00 +9°C° 0 mm 7 mps 732 mmHg 85%
    05:00 +9°C° 0 mm 8 mps 732 mmHg 86%
    06:00 +9°C° 0 mm 8 mps 732 mmHg 84%
    07:00 +9°C° 0 mm 8 mps 732 mmHg 83%
    08:00 +10°C° 0 mm 9 mps 731 mmHg 79%
    09:00 +11°C° 0 mm 9 mps 731 mmHg 73%
    10:00 +12°C° 0 mm 10 mps 731 mmHg 66%
    11:00 +14°C° 0 mm 10 mps 731 mmHg 60%
    12:00 +14°C° 0 mm 10 mps 731 mmHg 57%
    13:00 +16°C° 0 mm 9 mps 731 mmHg 54%
    14:00 +16°C° 0 mm 9 mps 731 mmHg 52%
    15:00 +15°C° 0 mm 8 mps 731 mmHg 55%
    16:00 +14°C° 0 mm 7 mps 732 mmHg 58%
    17:00 +13°C° 0 mm 6 mps 732 mmHg 61%
    18:00 +13°C° 0 mm 5 mps 732 mmHg 64%
    19:00 +13°C° 0 mm 5 mps 733 mmHg 67%
    20:00 +12°C° 0 mm 5 mps 733 mmHg 70%
    21:00 +12°C° 0 mm 4 mps 733 mmHg 73%
    22:00 +11°C° 0 mm 4 mps 734 mmHg 76%
    23:00 +11°C° 0 mm 4 mps 734 mmHg 79%

    Tomorrow, 17 December, Sunday

    Time Temperature Precipitation Wind Pressure Humidity
    00:00 +10°C° 0.6 mm 4 mps 734 mmHg 81%
    01:00 +10°C° 0.6 mm 3 mps 734 mmHg 83%
    02:00 +9°C° 0.6 mm 3 mps 734 mmHg 85%
    03:00 +7°C° 1.5 mm 4 mps 734 mmHg 86%
    04:00 +7°C° 1.5 mm 4 mps 734 mmHg 88%
    05:00 +6°C° 1.5 mm 5 mps 734 mmHg 90%
    06:00 +6°C° 0.9 mm 5 mps 734 mmHg 89%
    07:00 +6°C° 0.9 mm 5 mps 734 mmHg 89%
    08:00 +5°C° 0.9 mm 5 mps 734 mmHg 89%
    09:00 +4°C° 0.7 mm 6 mps 735 mmHg 87%
    10:00 +4°C° 0.7 mm 6 mps 735 mmHg 86%
    11:00 +4°C° 0.7 mm 6 mps 735 mmHg 85%
    12:00 +4°C° 0.8 mm 6 mps 735 mmHg 84%
    13:00 +3°C° 0.8 mm 6 mps 735 mmHg 83%
    14:00 +3°C° 0.8 mm 6 mps 735 mmHg 82%
    15:00 +3°C° 0.1 mm 6 mps 735 mmHg 82%
    16:00 +3°C° 0.1 mm 6 mps 735 mmHg 82%
    17:00 +2°C° 0.1 mm 6 mps 736 mmHg 81%
    18:00 +2°C° 0.1 mm 6 mps 736 mmHg 81%
    19:00 +2°C° 0.1 mm 6 mps 737 mmHg 81%
    20:00 +2°C° 0.1 mm 6 mps 737 mmHg 81%
    21:00 +1°C° 0 mm 6 mps 738 mmHg 81%
    22:00 +1°C° 0 mm 6 mps 738 mmHg 81%
    23:00 +1°C° 0 mm 5 mps 739 mmHg 81%

    Day after tomorrow, 18 December, Monday

    Time Temperature Precipitation Wind Pressure Humidity
    00:00 +1°C° 0 mm 5 mps 739 mmHg 81%
    01:00 +1°C° 0 mm 5 mps 740 mmHg 81%
    02:00 0°C° 0 mm 5 mps 740 mmHg 80%
    03:00 0°C° 0 mm 5 mps 740 mmHg 81%
    04:00 -1°C° 0 mm 4 mps 740 mmHg 82%
    05:00 -1°C° 0 mm 4 mps 740 mmHg 82%
    06:00 -1°C° 0 mm 4 mps 741 mmHg 82%
    07:00 -2°C° 0 mm 4 mps 741 mmHg 82%
    08:00 -1°C° 0 mm 3 mps 741 mmHg 82%
    09:00 -1°C° 0 mm 4 mps 742 mmHg 77%
    10:00 0°C° 0 mm 4 mps 742 mmHg 73%
    11:00 +1°C° 0 mm 4 mps 742 mmHg 68%
    12:00 +1°C° 0 mm 4 mps 742 mmHg 67%
    13:00 +3°C° 0 mm 4 mps 742 mmHg 65%
    14:00 +3°C° 0 mm 4 mps 742 mmHg 63%
    15:00 +1°C° 0 mm 4 mps 742 mmHg 66%
    16:00 +2°C° 0 mm 3 mps 742 mmHg 69%
    17:00 +1°C° 0 mm 3 mps 742 mmHg 72%
    18:00 +1°C° 0 mm 3 mps 742 mmHg 73%
    19:00 0°C° 0 mm 4 mps 743 mmHg 74%
    20:00 0°C° 0 mm 4 mps 743 mmHg 75%
    21:00 -1°C° 0 mm 4 mps 743 mmHg 76%
    22:00 -1°C° 0 mm 4 mps 743 mmHg 77%
    23:00 -1°C° 0 mm 5 mps 744 mmHg 79%

    19 December, Tuesday

    Time Temperature Precipitation Wind Pressure Humidity
    00:00 -2°C° 0 mm 5 mps 744 mmHg 79%
    01:00 -2°C° 0 mm 5 mps 744 mmHg 79%
    02:00 -2°C° 0 mm 5 mps 744 mmHg 79%
    03:00 -2°C° 0 mm 5 mps 744 mmHg 78%
    04:00 -4°C° 0 mm 5 mps 744 mmHg 78%
    05:00 -4°C° 0 mm 5 mps 745 mmHg 77%
    06:00 -4°C° 0 mm 5 mps 745 mmHg 77%
    07:00 -4°C° 0 mm 5 mps 746 mmHg 77%
    08:00 -4°C° 0 mm 5 mps 746 mmHg 77%
    09:00 -4°C° 0 mm 5 mps 746 mmHg 74%
    10:00 -2°C° 0 mm 5 mps 747 mmHg 71%
    11:00 -2°C° 0 mm 5 mps 747 mmHg 68%
    12:00 -3°C° 0 mm 6 mps 747 mmHg 67%
    13:00 -2°C° 0 mm 6 mps 747 mmHg 66%
    14:00 -2°C° 0 mm 6 mps 747 mmHg 65%
    15:00 -2°C° 0 mm 6 mps 748 mmHg 66%
    16:00 -2°C° 0 mm 5 mps 748 mmHg 67%
    17:00 -2°C° 0 mm 5 mps 748 mmHg 68%
    18:00 -2°C° 0 mm 5 mps 748 mmHg 69%
    19:00 -2°C° 0 mm 5 mps 748 mmHg 71%
    20:00 -2°C° 0 mm 5 mps 749 mmHg 72%
    21:00 -2°C° 0 mm 5 mps 749 mmHg 75%
    22:00 -2°C° 0 mm 5 mps 749 mmHg 77%
    23:00 -4°C° 0 mm 5 mps 749 mmHg 79%

    20 December, Wednesday

    Time Temperature Precipitation Wind Pressure Humidity
    00:00 -4°C° 0 mm 5 mps 749 mmHg 81%
    01:00 -3°C° 0 mm 4 mps 748 mmHg 83%
    02:00 -3°C° 0 mm 4 mps 748 mmHg 85%
    03:00 -3°C° 0 mm 4 mps 748 mmHg 86%
    04:00 -3°C° 0 mm 4 mps 748 mmHg 86%
    05:00 -2°C° 0 mm 3 mps 748 mmHg 86%
    06:00 -2°C° 0 mm 3 mps 748 mmHg 86%
    07:00 -2°C° 0 mm 3 mps 748 mmHg 86%
    08:00 -2°C° 0 mm 3 mps 748 mmHg 86%
    09:00 -2°C° 0 mm 3 mps 748 mmHg 82%
    10:00 -1°C° 0 mm 3 mps 748 mmHg 78%
    11:00 0°C° 0 mm 3 mps 748 mmHg 74%
    12:00 0°C° 0 mm 3 mps 747 mmHg 73%
    13:00 +1°C° 0 mm 3 mps 747 mmHg 71%
    14:00 +1°C° 0 mm 3 mps 746 mmHg 70%
    15:00 0°C° 0 mm 3 mps 746 mmHg 73%
    16:00 +1°C° 0 mm 2 mps 746 mmHg 76%
    17:00 -1°C° 0 mm 2 mps 746 mmHg 78%
    18:00 -1°C° 0.1 mm 2 mps 747 mmHg 80%
    19:00 -1°C° 0.1 mm 2 mps 747 mmHg 81%
    20:00 -1°C° 0.1 mm 2 mps 747 mmHg 83%
    21:00 -1°C° 0.1 mm 2 mps 747 mmHg 83%
    22:00 -1°C° 0.1 mm 2 mps 747 mmHg 84%
    23:00 -2°C° 0.1 mm 2 mps 747 mmHg 85%

    21 December, Thursday

    Time Temperature Precipitation Wind Pressure Humidity
    00:00 -2°C° 0.1 mm 2 mps 747 mmHg 85%
    01:00 -2°C° 0.1 mm 2 mps 747 mmHg 86%
    02:00 -2°C° 0.1 mm 2 mps 747 mmHg 86%
    03:00 -2°C° 0.1 mm 3 mps 747 mmHg 86%
    04:00 -2°C° 0.1 mm 3 mps 747 mmHg 87%
    05:00 -2°C° 0.1 mm 3 mps 747 mmHg 87%
    06:00 -2°C° 0.1 mm 3 mps 747 mmHg 86%
    07:00 -4°C° 0.1 mm 3 mps 747 mmHg 85%
    08:00 -4°C° 0.1 mm 4 mps 748 mmHg 85%
    09:00 -4°C° 0 mm 4 mps 748 mmHg 79%
    10:00 -3°C° 0 mm 4 mps 748 mmHg 74%
    11:00 -2°C° 0 mm 4 mps 749 mmHg 68%
    12:00 -2°C° 0 mm 4 mps 748 mmHg 66%
    13:00 -2°C° 0 mm 4 mps 748 mmHg 64%
    14:00 -1°C° 0 mm 4 mps 748 mmHg 62%
    15:00 -2°C° 0 mm 4 mps 748 mmHg 66%
    16:00 -2°C° 0 mm 3 mps 748 mmHg 71%
    17:00 -4°C° 0 mm 3 mps 748 mmHg 75%
    18:00 -4°C° 0 mm 3 mps 748 mmHg 77%
    19:00 -4°C° 0 mm 3 mps 748 mmHg 79%
    20:00 -4°C° 0 mm 3 mps 748 mmHg 81%
    21:00 -4°C° 0 mm 3 mps 748 mmHg 83%
    22:00 -4°C° 0 mm 3 mps 747 mmHg 85%
    23:00 -4°C° 0 mm 3 mps 747 mmHg 87%
    Show more